Waarnemingen

Advertentie
Mijn weer
Horn, Zweden (2557): temperatuur & dauwpunt: 12.02.2019 01:00:00 - 18.02.2019 01:00:00 (CET)Horn, Zweden (2557): windsnelheid & windstoten: 12.02.2019 01:00:00 - 18.02.2019 01:00:00 (CET)Horn, Zweden (2557): windrichting: 12.02.2019 01:00:00 - 18.02.2019 01:00:00 (CET)Horn, Zweden (2557): luchtdruk: 12.02.2019 01:00:00 - 18.02.2019 01:00:00 (CET)Horn, Zweden (2557): zicht: 12.02.2019 01:00:00 - 18.02.2019 01:00:00 (CET)Horn, Zweden (2557): neerslag: 12.02.2019 01:00:00 - 18.02.2019 01:00:00 (CET)
Datum & Tijd tt [°C] td [°C] ff [km/u] ff [kn] fx [km/u] fx [kn] dd ppp [hPa] vv [km] rr [mm]
18.02.2019 01:00:00 -0,7 -2,8 4 2 7 4 Z 1021,2 10 0,0
18.02.2019 00:00:00 -1,5 -3,7 0 0 4 2 N 1021,2 4,8 0,0
17.02.2019 23:00:00 -0,5 -3,0 0 0 4 2 N 1021,2 5 0,0
17.02.2019 22:00:00 1,1 -1,5 0 0 9 5 N 1021,4 1,3 0,0
17.02.2019 21:00:00 1,3 -1,4 2 1 10 6 Z 1021,4 9 0,0
17.02.2019 20:00:00 3,3 0,5 6 3 10 6 ZW 1021,1 18 0,0
17.02.2019 19:00:00 3,4 1,3 4 2 5 3 ZZW 1021,0 2,7 0,0
17.02.2019 18:00:00 3,9 2,1 3 1 5 3 ZO 1021,1 1,0 0,0
17.02.2019 17:00:00 4,5 2,2 0 0 4 2 N 1020,8 1,1 0,0
17.02.2019 16:00:00 5,7 3,4 2 1 5 3 O 1020,4 12 0,0
17.02.2019 15:00:00 6,3 3,5 0 0 8 5 N 1020,1 18 0,0
17.02.2019 14:00:00 6,7 3,8 3 2 16 8 WZW 1019,7 22 0,0
17.02.2019 13:00:00 6,1 3,9 5 3 16 8 ZW 1019,7 14 0,1
17.02.2019 12:00:00 6,0 4,2 8 4 14 7 ZW 1019,7 8 0,1
17.02.2019 11:00:00 6,0 4,1 6 3 10 6 ZW 1019,4 9 0,2
17.02.2019 10:00:00 5,6 3,9 5 3 8 4 ZW 1019,1 6 0,4
17.02.2019 09:00:00 4,7 2,6 3 2 5 3 Z 1019,0 4,9 0,2
17.02.2019 08:00:00 4,4 1,9 0 0 16 8 N 1018,6 1,0 0,2
17.02.2019 07:00:00 5,0 2,7 5 3 16 9 ZW 1018,1 6 0,0
17.02.2019 06:00:00 5,5 2,8 9 5 18 10 W 1017,5 15 0,0
17.02.2019 05:00:00 5,6 2,9 9 5 18 10 W 1017,3 11 0,0
17.02.2019 04:00:00 6,1 3,4 11 6 17 9 WNW 1017,0 11 0,0
17.02.2019 03:00:00 5,7 2,2 5 3 24 13 W 1016,7 16 0,0
17.02.2019 02:00:00 6,5 3,1 9 5 24 13 W 1016,3 17 0,0
17.02.2019 01:00:00 7,1 3,5 11 6 24 13 WNW 1015,6 16 0,0
17.02.2019 00:00:00 7,0 3,4 11 6 26 14 W 1015,3 15 0,0
16.02.2019 23:00:00 7,4 3,6 16 8 26 14 W 1015,0 13 0,0
16.02.2019 22:00:00 7,4 3,4 11 6 28 15 W 1014,6 12 0,0
16.02.2019 21:00:00 7,6 3,3 14 8 36 19 W 1014,2 13 0,0
16.02.2019 20:00:00 7,4 2,7 17 9 39 21 WZW 1013,9 15 0,0
16.02.2019 19:00:00 7,2 2,1 20 11 43 23 WZW 1013,1 20 0,0
16.02.2019 18:00:00 8,3 1,9 21 12 43 23 WZW 1012,5 42 0,0
16.02.2019 17:00:00 8,4 0,6 15 8 34 19 WZW 1012,2 48 0,0
16.02.2019 16:00:00 9,6 0,2 12 7 39 21 W 1012,0 49 0,0
16.02.2019 15:00:00 10,9 0,3 21 12 39 21 WZW 1012,0 42 0,0
16.02.2019 14:00:00 10,9 -0,6 19 11 38 21 ZW 1012,1 42 0,0
16.02.2019 13:00:00 11,2 -0,6 20 11 37 20 ZW 1012,8 41 0,0
16.02.2019 12:00:00 10,7 -0,8 19 10 35 19 ZW 1013,8 34 0,0
16.02.2019 11:00:00 9,9 -1,5 17 9 36 19 ZW 1014,4 39 0,0
16.02.2019 10:00:00 8,3 -1,2 19 10 36 19 ZW 1014,8 25 0,0
16.02.2019 09:00:00 5,8 -2,8 15 8 24 13 ZZW 1015,6 32 0,0
16.02.2019 08:00:00 3,5 -3,1 8 4 16 9 ZZW 1016,4 21 0,0
16.02.2019 07:00:00 3,1 -3,0 9 5 19 10 ZZW 1016,9 20 0,0
16.02.2019 06:00:00 3,1 -3,0 11 6 20 11 ZZW 1017,4 20 0,0
16.02.2019 05:00:00 3,2 -2,7 12 7 32 18 ZZW 1018,3 20 0,0
16.02.2019 04:00:00 3,5 -3,1 13 7 32 18 ZW 1018,9 22 0,0
16.02.2019 03:00:00 3,9 -2,7 16 9 29 16 ZW 1019,7 20 0,0
16.02.2019 02:00:00 2,3 -3,0 9 5 13 7 ZZW 1020,7 17 0,0
16.02.2019 01:00:00 1,6 -3,9 0 0 9 5 N 1021,6 29 0,0
16.02.2019 00:00:00 1,6 -3,9 6 3 11 6 Z 1022,2 50 0,0
15.02.2019 23:00:00 1,0 -4,2 3 2 15 8 ZW 1022,6 50 0,0
15.02.2019 22:00:00 2,3 -3,4 3 2 15 8 Z 1022,9 50 0,0
15.02.2019 21:00:00 4,1 -2,7 5 3 10 6 ZW 1023,1 50 0,0
15.02.2019 20:00:00 1,0 -3,5 6 3 14 8 ZW 1023,7 50 0,0
15.02.2019 19:00:00 3,3 -2,7 6 4 17 9 ZW 1024,2 50 0,0
15.02.2019 18:00:00 4,5 -1,7 10 5 22 12 ZZW 1024,3 50 0,0
15.02.2019 17:00:00 5,4 -1,7 10 5 29 15 ZW 1024,4 50 0,0
15.02.2019 16:00:00 7,8 -0,7 11 6 29 15 WZW 1024,7 50 0,0
15.02.2019 15:00:00 9,4 0,8 12 7 22 12 WZW 1024,7 47 0,0
15.02.2019 14:00:00 9,5 2,4 13 7 22 12 WZW 1025,2 46 0,0
15.02.2019 13:00:00 9,1 3,1 14 7 24 13 WZW 1025,4 41 0,0
15.02.2019 12:00:00 8,4 3,8 11 6 24 13 WZW 1025,5 41 0,0
15.02.2019 11:00:00 7,6 4,0 8 4 17 9 W 1025,8 47 0,0
15.02.2019 10:00:00 6,6 3,4 9 5 16 9 W 1026,0 49 0,0
15.02.2019 09:00:00 3,8 1,3 6 3 13 7 WZW 1026,3 35 0,0
15.02.2019 08:00:00 2,9 0,5 7 4 10 6 ZW 1026,2 23 0,0
15.02.2019 07:00:00 3,9 1,1 5 3 10 5 ZW 1025,8 27 0,0
15.02.2019 06:00:00 3,6 1,0 2 1 7 4 ZZW 1025,7 23 0,0
15.02.2019 05:00:00 1,4 -0,4 0 0 9 5 N 1025,6 6 0,0
15.02.2019 04:00:00 2,1 -0,3 3 2 12 6 Z 1025,0 10 0,0
15.02.2019 03:00:00 3,1 0,2 2 1 15 8 ZW 1025,2 14 0,0
15.02.2019 02:00:00 4,2 1,1 0 0 16 8 N 1025,2 17 0,0
15.02.2019 01:00:00 4,7 1,7 8 4 18 10 W 1025,0 17 0,0
15.02.2019 00:00:00 4,9 1,9 9 5 32 17 WZW 1025,0 17 0,0
14.02.2019 23:00:00 5,3 2,0 12 7 36 20 WZW 1024,7 18 0,0
14.02.2019 22:00:00 5,1 1,8 17 9 36 20 WZW 1024,5 18 0,0
14.02.2019 21:00:00 5,4 1,7 12 7 31 17 W 1025,3 17 0,0
14.02.2019 20:00:00 5,9 2,0 15 8 33 18 W 1024,7 19 0,0
14.02.2019 19:00:00 6,0 2,1 18 10 39 21 WZW 1024,7 25 0,0
14.02.2019 18:00:00 6,7 2,8 21 11 39 21 W 1025,2 31 0,0
14.02.2019 17:00:00 6,8 3,1 20 11 38 21 W 1025,0 38 0,0
14.02.2019 16:00:00 6,8 3,1 15 8 41 22 WZW 1025,0 32 -
14.02.2019 15:00:00 7,0 3,2 21 12 45 24 W 1025,1 29 0,0
14.02.2019 14:00:00 7,0 3,4 22 12 45 24 WZW 1025,1 37 0,0
14.02.2019 13:00:00 7,4 3,4 24 13 38 20 WZW 1025,4 40 0,0
14.02.2019 12:00:00 7,1 3,3 18 10 29 16 WZW 1026,3 48 0,0
14.02.2019 11:00:00 6,6 3,2 14 8 25 13 WZW 1026,6 48 0,0
14.02.2019 10:00:00 6,3 2,9 10 6 25 13 W 1026,1 50 0,0
14.02.2019 09:00:00 5,6 3,1 15 8 23 12 W 1026,0 50 0,0
14.02.2019 08:00:00 4,9 2,4 11 6 23 12 W 1025,7 50 0,0
14.02.2019 07:00:00 4,7 2,4 14 8 22 12 WZW 1025,4 50 0,0
14.02.2019 06:00:00 4,0 1,5 8 4 16 9 WZW 1025,2 37 0,0
14.02.2019 05:00:00 2,4 -0,4 4 2 11 6 ZZO 1025,3 11 0,0
14.02.2019 04:00:00 2,5 -0,9 2 1 11 6 WZW 1025,6 11 0,0
14.02.2019 03:00:00 -1,4 -4,4 5 3 9 5 ZZO 1025,4 11 0,0
14.02.2019 02:00:00 -2,5 -6,0 0 0 13 7 N 1024,6 13 0,0
14.02.2019 01:00:00 -1,5 -5,2 3 1 13 7 Z 1024,2 13 0,0
14.02.2019 00:00:00 -0,9 -4,9 5 3 7 4 Z 1023,7 13 0,0
13.02.2019 23:00:00 0,2 -4,1 0 0 8 5 N 1023,3 15 0,0
13.02.2019 22:00:00 1,2 -3,2 0 0 22 12 N 1022,7 15 0,0
13.02.2019 21:00:00 3,2 -3,4 0 0 21 11 N 1022,1 19 0,0
13.02.2019 20:00:00 2,6 -2,7 8 4 22 12 WZW 1021,5 21 0,0
13.02.2019 19:00:00 4,0 -2,2 13 7 22 12 WZW 1021,0 32 0,0
13.02.2019 18:00:00 3,2 -3,0 4 2 34 18 ZZW 1020,5 34 0,0
13.02.2019 17:00:00 6,5 -2,1 8 4 34 18 W 1019,4 39 0,0
13.02.2019 16:00:00 7,3 -0,9 19 10 35 19 W 1018,7 41 0,0
13.02.2019 15:00:00 8,5 -0,5 19 10 39 21 W 1018,4 33 0,0
13.02.2019 14:00:00 8,7 -0,4 10 6 39 21 WNW 1017,6 36 0,0
13.02.2019 13:00:00 8,4 0,2 25 14 40 21 WNW 1017,0 30 0,0
13.02.2019 12:00:00 7,6 0,3 22 12 37 20 WNW 1016,5 30 0,0
13.02.2019 11:00:00 7,7 0,0 17 9 50 27 WNW 1015,7 28 0,0
13.02.2019 10:00:00 7,0 0,2 24 13 50 27 WNW 1014,4 26 0,0
13.02.2019 09:00:00 6,2 0,5 25 14 46 25 WNW 1013,4 25 0,0
13.02.2019 08:00:00 5,7 0,5 22 12 50 27 W 1012,1 26 0,0
13.02.2019 07:00:00 5,7 0,9 28 15 51 28 W 1011,3 29 0,0
13.02.2019 06:00:00 5,7 1,8 32 17 51 28 W 1010,4 37 0,0
13.02.2019 05:00:00 5,1 1,9 26 14 41 22 W 1010,8 50 0,0
13.02.2019 04:00:00 4,3 1,8 19 10 32 17 WZW 1010,9 50 0,0
13.02.2019 03:00:00 3,2 1,1 17 9 30 16 WZW 1012,1 50 0,0
13.02.2019 02:00:00 2,0 -0,1 16 9 29 16 ZZW 1013,2 50 0,0
13.02.2019 01:00:00 0,9 -1,2 16 9 26 14 ZZW 1014,2 50 0,0
13.02.2019 00:00:00 0,1 -0,9 12 7 26 14 ZZW 1016,6 3,2 0,6
12.02.2019 23:00:00 0,0 -1,6 16 9 27 14 ZZW 1018,1 2,5 0,1
12.02.2019 22:00:00 0,3 -3,8 16 8 25 14 ZZW 1019,3 11 0,0
12.02.2019 21:00:00 0,9 -6,1 14 8 22 12 ZW 1020,1 50 0,0
12.02.2019 20:00:00 -0,1 -7,2 8 4 13 7 Z 1020,5 50 0,0
12.02.2019 19:00:00 -1,3 -8,1 7 4 12 6 ZZW 1020,8 50 0,0
12.02.2019 18:00:00 -1,2 -8,4 9 5 19 10 ZZW 1021,2 50 0,0
12.02.2019 17:00:00 -0,1 -7,8 11 6 33 18 WZW 1021,0 50 0,0
12.02.2019 16:00:00 1,1 -7,7 11 6 33 18 W 1021,1 50 0,0
12.02.2019 15:00:00 2,4 -7,2 17 9 35 19 W 1020,8 50 0,0
12.02.2019 14:00:00 2,5 -8,2 18 10 35 19 WNW 1020,8 50 0,0
12.02.2019 13:00:00 2,1 -7,6 18 10 29 16 WNW 1020,5 45 0,0
12.02.2019 12:00:00 1,2 -5,7 16 9 32 17 WNW 1020,1 38 0,0
12.02.2019 11:00:00 0,2 -6,2 17 9 32 17 WNW 1020,1 50 0,0
12.02.2019 10:00:00 -0,7 -6,5 18 10 27 15 WNW 1019,5 45 0,0
12.02.2019 09:00:00 -1,5 -6,4 10 5 18 10 WNW 1019,0 42 0,0
12.02.2019 08:00:00 -2,6 -6,9 8 4 15 8 WNW 1018,1 50 0,0
12.02.2019 07:00:00 -3,2 -7,5 6 3 21 11 W 1017,2 50 0,0
12.02.2019 06:00:00 -1,8 -6,5 8 5 21 11 NW 1016,2 50 0,0
12.02.2019 05:00:00 -1,7 -6,3 9 5 22 12 WNW 1015,2 50 0,0
12.02.2019 04:00:00 -1,4 -6,0 8 5 22 12 NW 1013,9 50 0,0
12.02.2019 03:00:00 -1,2 -5,8 11 6 22 12 WNW 1013,0 50 0,0
12.02.2019 02:00:00 -1,2 -6,2 7 4 18 10 WNW 1011,9 50 0,0
12.02.2019 01:00:00 -1,0 -5,8 12 6 21 11 WNW 1010,8 50 0,0

tt = temperatuur
td = dauwpunt
ff = windsnelheid
fx = windstoten
dd = windrichting
ppp = luchtdruk
vv = zicht
rr = neerslag

Weerstations in de omgeving